DW7572 Weather Reports


time (UTC)temp
C
wind
direction
speed
KPH
gust
KPH
rain 1hr
cm
rain 24hr
cm
rain mn
cm
humidity
%
barometer
mb
20260831124538 21 270 3.2 4.8 0.00 0.00 0.00 98 1010.2
20260831123517 20 180 1.6 4.8 0.00 0.00 0.00 99 1010.0
20260831122517 20 180 1.6 4.8 0.00 0.00 0.00 99 1009.7
20260831121517 20 180 1.6 4.8 0.00 0.00 0.00 98 1009.5
20260831120517 20 180 3.2 4.8 0.00 0.00 0.00 98 1009.2
20260831115517 20 180 3.2 6.4 0.00 0.00 0.00 98 1009.3
20260831114517 20 203 4.8 8.0 0.00 0.00 0.00 98 1009.3
20260831113517 20 203 6.4 9.7 0.00 0.00 0.00 98 1009.1
20260831112517 19 203 4.8 8.0 0.00 0.00 0.00 98 1009.0
20260831111517 19 203 3.2 6.4 0.00 0.00 0.00 98 1008.9
20260831110517 20 180 4.8 9.7 0.00 0.00 0.00 98 1008.8
20260831105537 20 203 4.8 8.0 0.00 0.00 0.00 98 1008.6
20260831104517 20 203 3.2 6.4 0.00 0.00 0.00 98 1008.6
20260831103517 20 203 3.2 4.8 0.00 0.00 0.00 98 1008.5
20260831102517 20 203 1.6 3.2 0.00 0.00 0.00 98 1008.5
20260831101517 20 180 1.6 4.8 0.00 0.00 0.00 98 1008.6
20260831100517 20 0.0 0.0 0.00 0.00 0.00 98 1008.3
20260831095516 20 180 3.2 6.4 0.00 0.00 0.00 98 1008.3
20260831094517 20 180 4.8 6.4 0.00 0.00 0.00 98 1008.3
20260831093538 21 180 4.8 8.0 0.00 0.00 0.00 98 1008.4
20260831092516 21 180 4.8 6.4 0.00 0.00 0.00 98 1008.5
20260831091517 21 203 6.4 11.3 0.00 0.00 0.00 98 1008.5
20260831090557 21 180 6.4 9.7 0.00 0.00 0.00 98 1008.3
20260831085518 21 180 4.8 9.7 0.00 0.00 0.00 98 1008.5
20260831084516 21 180 6.4 8.0 0.00 0.00 0.00 98 1008.5
20260831083657 21 180 6.4 11.3 0.00 0.00 0.00 98 1008.5
20260831082516 21 180 6.4 9.7 0.00 0.00 0.00 98 1008.3
20260831081516 21 180 6.4 9.7 0.00 0.00 0.00 97 1008.1
20260831080517 21 180 6.4 9.7 0.00 0.00 0.00 97 1008.3
20260831075516 21 180 9.7 14.5 0.00 0.00 0.00 97 1008.2
20260831074517 21 180 9.7 16.1 0.00 0.00 0.00 97 1008.2
20260831073516 21 180 9.7 17.7 0.00 0.00 0.00 97 1008.2
20260831072517 22 180 9.7 14.5 0.00 0.00 0.00 97 1008.3
20260831071537 22 180 11.3 16.1 0.00 0.00 0.00 97 1008.3
20260831070516 22 180 9.7 16.1 0.00 0.00 0.00 97 1008.3
20260831065536 22 180 9.7 17.7 0.00 0.00 0.00 97 1008.4
20260831064536 22 180 9.7 16.1 0.00 0.00 0.00 97 1008.4
20260831063517 22 180 11.3 19.3 0.00 0.00 0.00 97 1008.4
20260831062516 22 158 11.3 19.3 0.00 0.00 0.00 97 1008.2
20260831061516 22 180 12.9 19.3 0.00 0.00 0.00 96 1008.5
20260831060537 22 180 12.9 22.5 0.00 0.00 0.00 96 1008.6
20260831055516 22 180 12.9 19.3 0.00 0.00 0.00 96 1008.6
20260831054517 22 158 12.9 20.9 0.00 0.00 0.00 96 1008.5
20260831053516 22 158 11.3 16.1 0.00 0.00 0.00 96 1008.7
20260831052516 22 158 11.3 17.7 0.00 0.00 0.00 96 1008.9
20260831051516 22 180 11.3 16.1 0.00 0.00 0.00 96 1009.0
20260831050517 22 158 9.7 19.3 0.00 0.00 0.00 96 1008.9
20260831045517 22 180 11.3 14.5 0.00 0.00 0.00 95 1008.9
20260831044517 22 180 11.3 19.3 0.00 0.00 0.00 95 1008.9
20260831043518 22 180 11.3 19.3 0.00 0.00 0.00 95 1008.9
20260831042517 22 158 11.3 16.1 0.00 0.00 0.00 94 1008.8
20260831041517 23 158 11.3 20.9 0.00 0.00 0.00 94 1008.8
20260831040517 23 158 11.3 19.3 0.00 0.00 0.00 94 1008.9
20260831035518 23 158 11.3 17.7 0.00 0.00 0.00 94 1008.6
20260831034517 23 158 12.9 19.3 0.00 0.00 0.00 93 1008.5
20260831033517 23 158 14.5 20.9 0.00 0.00 0.00 93 1008.5
20260831032517 23 158 14.5 20.9 0.00 0.00 0.00 93 1008.4
20260831031517 23 158 16.1 27.4 0.00 0.00 0.00 92 1008.4
20260831030517 23 158 16.1 24.1 0.00 0.00 0.00 92 1008.3
20260831025617 23 158 14.5 20.9 0.00 0.00 0.00 92 1008.3
20260831024518 23 158 14.5 20.9 0.00 0.00 0.00 91 1008.4
20260831023516 24 158 14.5 20.9 0.00 0.00 0.00 91 1008.4
20260831022537 24 158 12.9 24.1 0.00 0.00 0.00 91 1008.3
20260831021517 24 158 12.9 22.5 0.00 0.00 0.00 90 1008.3
20260831020558 24 158 11.3 22.5 0.00 0.00 0.00 90 1008.1
20260831015518 25 158 12.9 19.3 0.00 0.00 0.00 89 1008.1
20260831014516 25 158 11.3 19.3 0.00 0.00 0.00 89 1008.2
20260831013517 25 158 11.3 19.3 0.00 0.00 0.00 88 1008.1
20260831012517 25 158 11.3 17.7 0.00 0.00 0.00 87 1007.8
20260831011517 25 158 11.3 17.7 0.00 0.00 0.00 87 1007.9
20260831010517 25 158 11.3 17.7 0.00 0.00 0.00 86 1007.9
20260831005517 26 158 11.3 16.1 0.00 0.00 0.00 86 1007.9
20260831004516 26 158 11.3 17.7 0.00 0.00 0.00 85 1007.8
20260831003537 26 158 11.3 17.7 0.00 0.00 0.00 83 1007.8
20260831002517 27 180 16.1 25.7 0.00 0.00 0.00 81 1007.9
20260831001521 27 158 16.1 25.7 0.00 0.00 0.00 80 1007.9
20260831000517 27 180 16.1 24.1 0.00 0.00 0.00 80 1008.1
20260830235517 27 158 9.7 16.1 0.00 0.00 0.00 83 1007.6
20260830234517 27 158 11.3 16.1 0.00 0.00 0.00 83 1007.7
20260830233516 27 158 12.9 19.3 0.00 0.00 0.00 82 1007.6
20260830232516 27 158 9.7 16.1 0.00 0.00 0.00 82 1007.4
20260830231517 28 158 11.3 25.7 0.00 0.00 0.00 81 1007.5
20260830230517 28 158 12.9 20.9 0.00 0.00 0.00 79 1007.5
20260830225517 28 158 12.9 20.9 0.00 0.00 0.00 78 1007.4
20260830224516 29 158 14.5 24.1 0.00 0.00 0.00 77 1007.3
20260830223516 28 158 14.5 24.1 0.00 0.00 0.00 78 1007.3
20260830222516 28 158 14.5 20.9 0.00 0.00 0.00 78 1007.4
20260830221537 28 158 12.9 20.9 0.00 0.00 0.00 77 1007.5
20260830220516 29 158 12.9 22.5 0.00 0.00 0.00 76 1007.3
20260830215536 30 158 16.1 24.1 0.00 0.00 0.00 72 1007.2
20260830214517 30 158 17.7 27.4 0.00 0.00 0.00 71 1007.4
20260830213536 30 180 17.7 32.2 0.00 0.00 0.00 71 1007.5
20260830212536 30 158 19.3 29.0 0.00 0.00 0.00 71 1007.7
20260830211517 31 158 19.3 30.6 0.00 0.00 0.00 71 1007.7
20260830210516 31 158 14.5 22.5 0.00 0.00 0.00 70 1007.6
20260830205516 31 158 16.1 24.1 0.00 0.00 0.00 70 1007.7
20260830204556 31 158 12.9 20.9 0.00 0.00 0.00 68 1007.7
20260830203537 31 158 14.5 19.3 0.00 0.00 0.00 66 1007.9
20260830202516 31 180 14.5 24.1 0.00 0.00 0.00 68 1007.7
20260830201516 31 158 11.3 17.7 0.00 0.00 0.00 68 1007.7
20260830200516 31 158 16.1 24.1 0.00 0.00 0.00 67 1007.8
20260830195517 31 135 12.9 20.9 0.00 0.00 0.00 68 1007.8
20260830194517 31 135 9.7 17.7 0.00 0.00 0.00 72 1007.9
20260830193516 31 158 12.9 20.9 0.00 0.00 0.00 72 1008.1
20260830192516 31 135 11.3 17.7 0.00 0.00 0.00 74 1008.1
20260830191516 30 158 12.9 20.9 0.00 0.00 0.00 73 1007.9
20260830190517 30 135 11.3 17.7 0.00 0.00 0.00 73 1007.9
20260830185516 30 135 11.3 19.3 0.00 0.00 0.00 72 1008.0
20260830184516 30 135 12.9 17.7 0.00 0.00 0.00 73 1008.2
20260830183515 30 135 6.4 14.5 0.00 0.00 0.00 75 1008.2
20260830182516 30 158 11.3 16.1 0.00 0.00 0.00 74 1008.3
20260830181515 30 135 8.0 14.5 0.00 0.00 0.00 74 1008.4
20260830180536 29 113 8.0 16.1 0.00 0.00 0.00 77 1008.5
20260830175536 29 135 8.0 14.5 0.00 0.00 0.00 76 1008.5
20260830174516 29 135 6.4 16.1 0.00 0.00 0.00 76 1008.4
20260830173515 29 135 6.4 12.9 0.00 0.00 0.00 79 1008.6
20260830172516 28 135 9.7 17.7 0.00 0.00 0.00 77 1008.9
20260830171515 28 68 8.0 14.5 0.00 0.00 0.00 79 1008.6
20260830170516 28 135 9.7 16.1 0.00 0.00 0.00 79 1009.1
20260830165515 28 135 11.3 19.3 0.00 0.00 0.00 81 1009.3
20260830164516 28 158 12.9 19.3 0.00 0.00 0.00 80 1009.1
20260830163515 28 113 11.3 17.7 0.00 0.00 0.00 81 1009.3
20260830162516 27 113 8.0 14.5 0.00 0.00 0.00 83 1009.5
20260830161518 27 113 8.0 14.5 0.00 0.00 0.00 83 1009.2
20260830160517 26 90 6.4 14.5 0.00 0.00 0.00 85 1008.9
20260830155523 26 90 4.8 11.3 0.00 0.00 0.00 86 1008.9
20260830154537 26 113 4.8 9.7 0.00 0.00 0.00 86 1008.8
20260830153517 26 135 6.4 12.9 0.00 0.00 0.00 86 1008.7
20260830152518 25 158 4.8 6.4 0.00 0.00 0.00 87 1008.7
20260830151517 25 135 4.8 8.0 0.00 0.00 0.00 88 1008.6
20260830150518 25 135 6.4 12.9 0.00 0.00 0.00 88 1008.8
20260830145517 24 113 6.4 11.3 0.00 0.00 0.00 89 1008.5
20260830144517 24 113 8.0 14.5 0.00 0.00 0.00 90 1008.6
20260830143518 23 135 9.7 16.1 0.00 0.00 0.00 92 1008.6
20260830142517 23 113 4.8 11.3 0.00 0.00 0.00 95 1008.5
20260830141517 22 113 8.0 12.9 0.00 0.00 0.00 95 1008.4
20260830140538 22 90 6.4 12.9 0.00 0.00 0.00 96 1008.4
20260830135518 22 68 8.0 12.9 0.00 0.00 0.00 97 1008.3
20260830134517 22 68 6.4 12.9 0.00 0.00 0.00 98 1008.4
20260830133518 21 90 4.8 11.3 0.00 0.00 0.00 98 1008.4
20260830132518 21 113 4.8 11.3 0.00 0.00 0.00 98 1008.5
20260830131517 21 90 4.8 11.3 0.00 0.00 0.00 99 1008.5
20260830130517 20 68 6.4 11.3 0.00 0.00 0.00 99 1008.4
20260830125518 20 68 6.4 11.3 0.00 0.00 0.00 99 1008.7